(347201) = 2011 HN19

Discovered at Catalina on 2008-09-06 by CSS.

Orbit

Orbit type: Main Belt

Note: WebGL enabled browser required.

epoch2023-09-13.0
epoch JD2460200.5
perihelion date2022-04-07.76682
perihelion JD2459677.26682
argument of perihelion (°)186.35387
ascending node (°)77.77439
inclination (°)4.93696
eccentricity0.1918092
perihelion distance (AU)1.8863774
Tisserand w.r.t. Jupiter3.5
ΔV w.r.t. Earth (km/sec)8.7
semimajor axis (AU)2.3340744
mean anomaly (°)144.61957
mean daily motion (°/day)0.27639600
aphelion distance (AU)2.782
period (years)3.57
P-vector [x]-0.10270322
P-vector [y]-0.90880015
P-vector [z]-0.40439379
Q-vector [x]0.99114980
Q-vector [y]-0.05912157
Q-vector [z]-0.11885588
absolute magnitude17.39
phase slope0.15
uncertainty0
referenceMPEC 2024-A65
observations used307
oppositions12
arc length (days)6610
first opposition used2005
last opposition used2024
residual rms (arc-secs)0.68
perturbers coarse indicatorM-v
perturbers precise indicator003Ek
first observation date used2005-11-30.0
last observation date used2024-01-05.0
computer nameMPCLINUX
JD of orbit computation2456731.550738
perihelion JD uncertainty (days)7.6753E-05
argument of perihelion uncertainty (°)5.2677E-05
ascending node uncertainty (°)5.0505E-05
inclination uncertainty (°)6.8887E-06
eccentricity uncertainty 6.9619E-08
perihelion distance uncertainty (AU)1.7881E-07
Minimum Orbit Intersection Distances (in AU)
for orbit epoch: 2460200.5, reference: E2024-A12
Mercury1.42133
Venus1.15974
Earth0.87006
Mars0.3902
Jupiter2.28808
Saturn6.27362
Uranus15.972
Neptune27.1652

Observations

312 total observations over interval: 2005 11 30.28734 – 2024 01 05.268161
These data are available for download (format description).

Date (UT) J2000 RA J2000 Dec Magn Location Ref
2005 11 30.28734 03 48 35.74 +17 52 39.2 21.1 V G96 – Mt. Lemmon Survey MPS 384182
2005 11 30.29412 03 48 35.28 +17 52 39.0 21.3 V G96 – Mt. Lemmon Survey MPS 384182
2005 11 30.30083 03 48 34.84 +17 52 37.8 21.3 V G96 – Mt. Lemmon Survey MPS 384182
2005 11 30.30758 03 48 34.48 +17 52 36.9 21.2 V G96 – Mt. Lemmon Survey MPS 384182
2007 03 13.24907 10 28 14.70 +18 27 55.8 20.1 V G96 – Mt. Lemmon Survey MPS 384182
2007 03 13.25719 10 28 14.19 +18 27 57.9 20.3 V G96 – Mt. Lemmon Survey MPS 384182
2007 03 13.26343 10 28 13.83 +18 28 00.1 19.8 V G96 – Mt. Lemmon Survey MPS 384182
2007 03 13.26972 10 28 13.44 +18 28 02.2 20.0 V G96 – Mt. Lemmon Survey MPS 384182
2008 09 06.31219 00 24 26.56 -06 45 57.9 20.0 V 703 – Catalina Sky Survey MPS 384182
2008 09 06.31863 00 24 26.17 -06 46 00.8 20.1 V 703 – Catalina Sky Survey MPS 384182
2008 09 06.32508 00 24 25.77 -06 46 01.7 20.6 V 703 – Catalina Sky Survey MPS 384182
2008 09 06.33154 00 24 25.30 -06 46 03.3 20.3 V 703 – Catalina Sky Survey MPS 384182
2008 10 07.26768 23 55 23.73 -09 22 52.0 20.3 V G96 – Mt. Lemmon Survey MPS 384182
2008 10 07.27693 23 55 23.26 -09 22 53.6 20.1 V G96 – Mt. Lemmon Survey MPS 384182
2008 10 07.28603 23 55 22.76 -09 22 55.3 20.3 V G96 – Mt. Lemmon Survey MPS 384182
2008 10 07.29514 23 55 22.33 -09 22 56.7 20.6 V G96 – Mt. Lemmon Survey MPS 384182
2011 02 13.53679 15 12 49.64 -12 46 29.4 21.0 V G96 – Mt. Lemmon Survey MPS 384182
2011 02 13.53882 15 12 49.82 -12 46 30.2 20.7 V G96 – Mt. Lemmon Survey MPS 384182
2011 02 13.54081 15 12 49.93 -12 46 29.2 21.0 V G96 – Mt. Lemmon Survey MPS 384182
2011 02 13.54285 15 12 50.11 -12 46 31.1 20.8 V G96 – Mt. Lemmon Survey MPS 384182
2011 04 26.32844 15 52 21.33 -15 06 18.2 20.6 V 691 – Steward Observatory, Kitt Peak-Spacewatch MPS 380185
2011 04 26.34621 15 52 20.64 -15 06 18.4 19.7 V 691 – Steward Observatory, Kitt Peak-Spacewatch MPS 380185
2011 04 26.36396 15 52 19.95 -15 06 18.8 19.8 V 691 – Steward Observatory, Kitt Peak-Spacewatch MPS 380185
2011 04 29.32956 15 50 27.01 -15 06 37.0 19.6 V 691 – Steward Observatory, Kitt Peak-Spacewatch MPS 380185
2011 04 29.34736 15 50 26.23 -15 06 37.2 19.6 V 691 – Steward Observatory, Kitt Peak-Spacewatch MPS 380185
2011 04 29.36512 15 50 25.44 -15 06 37.2 19.7 V 691 – Steward Observatory, Kitt Peak-Spacewatch MPS 380185
2011 05 03.29099 15 47 32.37 -15 06 59.9 19.6 V 691 – Steward Observatory, Kitt Peak-Spacewatch MPS 381314
2011 05 03.30877 15 47 31.49 -15 06 59.9 19.6 V 691 – Steward Observatory, Kitt Peak-Spacewatch MPS 381314
2011 05 03.33001 15 47 30.43 -15 07 01.6 19.2 V 691 – Steward Observatory, Kitt Peak-Spacewatch MPS 381314
2011 05 11.27833 15 40 35.12 -15 08 19.9 19.3 V 691 – Steward Observatory, Kitt Peak-Spacewatch MPS 382342
2011 05 11.29610 15 40 34.08 -15 08 19.9 19.4 V 691 – Steward Observatory, Kitt Peak-Spacewatch MPS 382342
2011 05 11.31390 15 40 33.00 -15 08 20.5 19.4 V 691 – Steward Observatory, Kitt Peak-Spacewatch MPS 382342
2011 05 22.24170 15 29 54.96 -15 13 48.8 18.9 V G96 – Mt. Lemmon Survey MPS 384182
2011 05 22.24905 15 29 54.49 -15 13 49.4 19.0 V G96 – Mt. Lemmon Survey MPS 384182
2011 05 22.25691 15 29 53.98 -15 13 49.7 18.9 V G96 – Mt. Lemmon Survey MPS 384182
2011 05 22.26436 15 29 53.55 -15 13 50.1 19.0 V G96 – Mt. Lemmon Survey MPS 384182
2011 06 02.33144 15 19 50.362 -15 27 28.52 19.3 w F51 – Pan-STARRS 1, Haleakala MPS 384182
2011 06 02.33209 15 19 50.326 -15 27 28.66 19.4 w F51 – Pan-STARRS 1, Haleakala MPS 384182
2011 06 02.34472 15 19 49.668 -15 27 29.98 19.4 w F51 – Pan-STARRS 1, Haleakala MPS 384182
2011 06 02.34538 15 19 49.632 -15 27 30.11 19.4 w F51 – Pan-STARRS 1, Haleakala MPS 384182
2011 06 02.35799 15 19 48.977 -15 27 31.42 19.4 w F51 – Pan-STARRS 1, Haleakala MPS 384182
2011 06 02.35865 15 19 48.937 -15 27 31.48 19.7 w F51 – Pan-STARRS 1, Haleakala MPS 384182
2011 06 02.37126 15 19 48.281 -15 27 32.76 19.4 w F51 – Pan-STARRS 1, Haleakala MPS 384182
2011 06 03.27802 15 19 04.87 -15 29 11.7 19.2 V 703 – Catalina Sky Survey MPS 384182
2011 06 03.28416 15 19 04.47 -15 29 11.3 19.2 V 703 – Catalina Sky Survey MPS 384182
2011 06 03.29034 15 19 04.18 -15 29 12.6 18.9 V 703 – Catalina Sky Survey MPS 384182
2011 06 03.29649 15 19 03.90 -15 29 13.2 19.3 V 703 – Catalina Sky Survey MPS 384182
2011 06 22.17472 15 09 48.09 -16 23 29.7 19.4 R H15 – ISON-NM Observatory, Mayhill MPS 385820
2011 06 22.18828 15 09 47.94 -16 23 33.0 19.4 R H15 – ISON-NM Observatory, Mayhill MPS 385820
2011 06 22.20182 15 09 47.79 -16 23 36.3 19.4 R H15 – ISON-NM Observatory, Mayhill MPS 385820
2011 06 22.21538 15 09 47.64 -16 23 39.5 19.3 R H15 – ISON-NM Observatory, Mayhill MPS 385820
2012 10 17.42352 03 34 22.51 +14 53 11.4 20.9 V G96 – Mt. Lemmon Survey MPS 435315
2012 10 17.42991 03 34 22.22 +14 53 11.3 20.8 V G96 – Mt. Lemmon Survey MPS 435315
2012 10 17.43640 03 34 21.93 +14 53 10.3 20.4 V G96 – Mt. Lemmon Survey MPS 435315
2012 10 17.44289 03 34 21.61 +14 53 09.0 20.6 V G96 – Mt. Lemmon Survey MPS 435315
2012 10 21.547888 03 31 00.938 +14 43 37.34 21.1 w F51 – Pan-STARRS 1, Haleakala MPS 437983
2012 10 21.563947 03 31 00.070 +14 43 35.14 21.2 w F51 – Pan-STARRS 1, Haleakala MPS 437983
2012 10 21.579967 03 30 59.223 +14 43 32.74 21.1 w F51 – Pan-STARRS 1, Haleakala MPS 437983
2012 10 21.596082 03 30 58.357 +14 43 30.40 21.6 w F51 – Pan-STARRS 1, Haleakala MPS 437983
2012 11 14.29309 03 06 54.57 +13 39 28.4 20.7 V G96 – Mt. Lemmon Survey MPS 441852
2012 11 14.29931 03 06 54.18 +13 39 27.7 20.8 V G96 – Mt. Lemmon Survey MPS 441852
2012 11 14.30563 03 06 53.71 +13 39 26.4 20.5 V G96 – Mt. Lemmon Survey MPS 441852
2012 11 14.31191 03 06 53.35 +13 39 25.5 20.9 V G96 – Mt. Lemmon Survey MPS 441852
2012 11 14.33877 03 06 51.55 +13 39 21.1 20.2 V G96 – Mt. Lemmon Survey MPS 441852
2012 11 14.34024 03 06 51.44 +13 39 20.8 20.4 V G96 – Mt. Lemmon Survey MPS 441852
2012 11 14.34174 03 06 51.37 +13 39 20.9 20.5 V G96 – Mt. Lemmon Survey MPS 441852
2012 11 14.34319 03 06 51.26 +13 39 20.4 20.9 V G96 – Mt. Lemmon Survey MPS 441852
2012 11 15.21539 03 05 55.89 +13 37 03.9 20.9 V G96 – Mt. Lemmon Survey MPS 441852
2012 11 15.21853 03 05 55.68 +13 37 03.6 20.2 V G96 – Mt. Lemmon Survey MPS 441852
2012 11 15.22226 03 05 55.42 +13 37 03.1 20.1 V G96 – Mt. Lemmon Survey MPS 441852
2012 11 15.22575 03 05 55.21 +13 37 02.0 19.9 V G96 – Mt. Lemmon Survey MPS 441852
2012 11 15.31841 03 05 49.12 +13 36 48.3 20.9 V G96 – Mt. Lemmon Survey MPS 441852
2012 11 15.32307 03 05 48.87 +13 36 47.3 20.4 V G96 – Mt. Lemmon Survey MPS 441852
2012 11 15.32750 03 05 48.55 +13 36 46.5 20.2 V G96 – Mt. Lemmon Survey MPS 441852
2012 11 15.33197 03 05 48.26 +13 36 45.6 20.1 V G96 – Mt. Lemmon Survey MPS 441852
2014 01 24.38251 09 58 02.965 +19 34 41.81 21.0 w F51 – Pan-STARRS 1, Haleakala MPS 500169
2014 01 24.39568 09 58 02.313 +19 34 47.17 20.9 w F51 – Pan-STARRS 1, Haleakala MPS 500169
2014 01 24.40887 09 58 01.658 +19 34 52.52 21.0 w F51 – Pan-STARRS 1, Haleakala MPS 500169
2014 01 24.42211 09 58 00.996 +19 34 58.00 21.0 w F51 – Pan-STARRS 1, Haleakala MPS 500169
2014 02 10.28889 09 41 50.24 +21 28 25.8 20.5 V G96 – Mt. Lemmon Survey MPS 501597
2014 02 10.29401 09 41 49.88 +21 28 27.8 20.6 V G96 – Mt. Lemmon Survey MPS 501597
2014 02 10.29911 09 41 49.54 +21 28 30.0 20.3 V G96 – Mt. Lemmon Survey MPS 501597
2014 02 10.30421 09 41 49.20 +21 28 31.7 20.6 V G96 – Mt. Lemmon Survey MPS 501597
2014 02 18.19569 09 33 22.35 +22 15 25.5 20.4 V G96 – Mt. Lemmon Survey MPS 502281
2014 02 18.20044 09 33 21.99 +22 15 27.4 20.2 V G96 – Mt. Lemmon Survey MPS 502281
2014 02 18.20518 09 33 21.75 +22 15 28.2 20.5 V G96 – Mt. Lemmon Survey MPS 502281
2014 02 18.20993 09 33 21.41 +22 15 30.1 20.8 V G96 – Mt. Lemmon Survey MPS 502281
2015 07 23.56975 23 16 11.543 -13 05 59.75 19.9 w F52 – Pan-STARRS 2, Haleakala MPS 617490
2015 07 23.58265 23 16 11.443 -13 06 03.41 19.9 w F52 – Pan-STARRS 2, Haleakala MPS 617490
2015 07 23.59544 23 16 11.345 -13 06 06.98 20.0 w F52 – Pan-STARRS 2, Haleakala MPS 617490
2015 07 23.60823 23 16 11.251 -13 06 10.46 20.1 w F52 – Pan-STARRS 2, Haleakala MPS 617490
2015 07 24.52887 23 16 06.220 -13 10 31.19 20.0 w F51 – Pan-STARRS 1, Haleakala MPS 618428
